Time,TemperatureF,DewpointF,PressureIn,WindDirection,WindDirectionDegrees,WindSpeedMPH,WindSpeedGustMPH,Humidity,HourlyPrecipIn,Conditions,Clouds,dailyrainin,SolarRadiationWatts/m^2,SoftwareType,DateUTC
2013-08-05 00:05:00,72.0,62.1,30.04,South,175,5.0,8.0,71,0.00,,,0.00,0,Wunderground v.1.15,2013-08-05 05:05:00,
2013-08-05 00:15:00,71.9,62.4,30.04,SSE,156,5.0,8.0,72,0.00,,,0.00,0,Wunderground v.1.15,2013-08-05 05:15:00,
2013-08-05 00:25:00,71.7,62.2,30.03,SSE,164,5.0,9.0,72,0.00,,,0.00,0,Wunderground v.1.15,2013-08-05 05:25:00,
2013-08-05 00:35:00,71.4,62.3,30.03,SSE,167,5.0,9.0,73,0.00,,,0.00,0,Wunderground v.1.15,2013-08-05 05:35:00,
2013-08-05 00:45:00,71.0,62.3,30.02,SSE,147,5.0,7.0,74,0.00,,,0.00,0,Wunderground v.1.15,2013-08-05 05:45:00,
2013-08-05 00:55:00,70.7,62.0,30.02,SSE,151,4.0,8.0,74,0.00,,,0.00,0,Wunderground v.1.15,2013-08-05 05:55:00,
2013-08-05 01:05:00,70.3,62.0,30.02,SE,136,4.0,7.0,75,0.00,,,0.00,0,Wunderground v.1.15,2013-08-05 06:05:00,
2013-08-05 01:15:00,69.8,61.5,30.02,SSE,157,4.0,7.0,75,0.00,,,0.00,0,Wunderground v.1.15,2013-08-05 06:15:00,
2013-08-05 01:25:00,69.3,61.4,30.01,SSE,165,3.0,7.0,76,0.00,,,0.00,0,Wunderground v.1.15,2013-08-05 06:25:00,
2013-08-05 01:35:00,69.0,61.9,30.00,SSE,163,4.0,8.0,78,0.00,,,0.00,0,Wunderground v.1.15,2013-08-05 06:35:00,
2013-08-05 01:45:00,68.4,61.6,30.00,SSE,151,5.0,8.0,79,0.00,,,0.00,0,Wunderground v.1.15,2013-08-05 06:45:00,
2013-08-05 01:55:00,68.2,61.8,29.99,SSE,154,3.0,8.0,80,0.00,,,0.00,0,Wunderground v.1.15,2013-08-05 06:55:00,
2013-08-05 02:05:00,68.1,61.7,29.99,SSE,165,5.0,8.0,80,0.00,,,0.00,0,Wunderground v.1.15,2013-08-05 07:05:00,
2013-08-05 02:15:00,67.4,61.7,29.99,South,173,4.0,7.0,82,0.00,,,0.00,0,Wunderground v.1.15,2013-08-05 07:15:00,
2013-08-05 02:20:00,67.1,61.8,29.99,South,185,3.0,7.0,83,0.00,,,0.00,0,Wunderground v.1.15,2013-08-05 07:20:00,
2013-08-05 02:25:00,66.9,61.9,29.98,SSE,163,3.0,7.0,84,0.00,,,0.00,0,Wunderground v.1.15,2013-08-05 07:25:00,
2013-08-05 02:35:00,66.8,62.1,29.99,SSE,167,3.0,6.0,85,0.00,,,0.00,0,Wunderground v.1.15,2013-08-05 07:35:00,
2013-08-05 02:45:00,66.9,62.2,29.98,South,190,4.0,6.0,85,0.00,,,0.00,0,Wunderground v.1.15,2013-08-05 07:45:00,
2013-08-05 02:55:00,66.8,62.5,29.97,SSE,165,5.0,7.0,86,0.00,,,0.00,0,Wunderground v.1.15,2013-08-05 07:55:00,
2013-08-05 03:05:00,66.4,62.4,29.96,South,182,5.0,8.0,87,0.00,,,0.00,0,Wunderground v.1.15,2013-08-05 08:05:00,
2013-08-05 03:15:00,66.1,62.4,29.96,South,181,4.0,7.0,88,0.00,,,0.00,0,Wunderground v.1.15,2013-08-05 08:15:00,
2013-08-05 03:25:00,66.2,62.9,29.97,SSW,200,4.0,5.0,89,0.00,,,0.00,0,Wunderground v.1.15,2013-08-05 08:25:00,
2013-08-05 03:35:00,66.6,63.6,29.96,South,174,4.0,7.0,90,0.00,,,0.00,0,Wunderground v.1.15,2013-08-05 08:35:00,
2013-08-05 03:45:00,66.7,63.7,29.96,SSW,196,3.0,6.0,90,0.00,,,0.00,0,Wunderground v.1.15,2013-08-05 08:45:00,
2013-08-05 03:55:00,66.7,63.7,29.96,SSW,196,3.0,6.0,90,0.00,,,0.00,0,Wunderground v.1.15,2013-08-05 08:55:00,
2013-08-05 04:06:00,66.4,63.4,29.96,South,187,2.0,6.0,90,0.00,,,0.00,0,Wunderground v.1.15,2013-08-05 09:06:00,
2013-08-05 04:15:00,66.2,63.5,29.95,South,173,1.0,4.0,91,0.00,,,0.00,0,Wunderground v.1.15,2013-08-05 09:15:00,
2013-08-05 04:25:00,66.2,63.5,29.95,South,180,2.0,4.0,91,0.00,,,0.00,0,Wunderground v.1.15,2013-08-05 09:25:00,
2013-08-05 04:35:00,66.2,63.5,29.95,SSE,162,3.0,5.0,91,0.00,,,0.00,0,Wunderground v.1.15,2013-08-05 09:35:00,
2013-08-05 04:45:00,66.4,63.7,29.95,South,188,4.0,7.0,91,0.00,,,0.00,0,Wunderground v.1.15,2013-08-05 09:45:00,
2013-08-05 04:50:00,66.3,63.6,29.95,SSW,195,4.0,4.0,91,0.00,,,0.00,0,Wunderground v.1.15,2013-08-05 09:50:00,
2013-08-05 04:55:00,66.3,63.9,29.95,SSE,153,3.0,8.0,92,0.00,,,0.00,0,Wunderground v.1.15,2013-08-05 09:55:00,
2013-08-05 05:05:00,66.6,64.2,29.96,SW,217,4.0,8.0,92,0.00,,,0.00,0,Wunderground v.1.15,2013-08-05 10:05:00,
2013-08-05 05:15:00,66.8,64.4,29.96,SW,220,4.0,8.0,92,0.00,,,0.00,0,Wunderground v.1.15,2013-08-05 10:15:00,
2013-08-05 05:29:00,67.1,64.7,29.97,SSW,206,3.0,3.0,92,0.00,,,0.00,0,Wunderground v.1.15,2013-08-05 10:29:00,
2013-08-05 05:35:00,67.2,64.8,29.97,SSW,206,3.0,7.0,92,0.00,,,0.00,0,Wunderground v.1.15,2013-08-05 10:35:00,
2013-08-05 05:45:00,67.4,65.0,29.97,SSW,198,2.0,6.0,92,0.00,,,0.00,0,Wunderground v.1.15,2013-08-05 10:45:00,
2013-08-05 05:55:00,67.5,65.1,29.96,South,187,3.0,6.0,92,0.00,,,0.00,0,Wunderground v.1.15,2013-08-05 10:55:00,
2013-08-05 06:06:00,67.6,65.5,29.96,South,188,4.0,6.0,93,0.00,,,0.00,0,Wunderground v.1.15,2013-08-05 11:06:00,
2013-08-05 06:15:00,67.6,65.5,29.95,South,177,5.0,8.0,93,0.00,,,0.00,0,Wunderground v.1.15,2013-08-05 11:15:00,
2013-08-05 06:25:00,67.6,65.5,29.94,South,179,5.0,9.0,93,0.00,,,0.00,0,Wunderground v.1.15,2013-08-05 11:25:00,
2013-08-05 06:35:00,67.8,65.7,29.94,SSW,198,5.0,10.0,93,0.00,,,0.00,7,Wunderground v.1.15,2013-08-05 11:35:00,
2013-08-05 06:45:00,68.1,66.3,29.93,South,180,7.0,12.0,94,0.00,,,0.00,18,Wunderground v.1.15,2013-08-05 11:45:00,
2013-08-05 06:55:00,68.2,66.4,29.93,SSE,163,6.0,11.0,94,0.00,,,0.00,26,Wunderground v.1.15,2013-08-05 11:55:00,
2013-08-05 07:05:00,68.6,66.8,29.93,South,184,6.0,11.0,94,0.00,,,0.00,26,Wunderground v.1.15,2013-08-05 12:05:00,
2013-08-05 07:15:00,69.0,66.9,29.94,South,182,7.0,12.0,93,0.00,,,0.00,44,Wunderground v.1.15,2013-08-05 12:15:00,
2013-08-05 07:25:00,69.2,67.1,29.93,SW,221,7.0,11.0,93,0.00,,,0.00,90,Wunderground v.1.15,2013-08-05 12:25:00,
2013-08-05 07:35:00,69.7,67.3,29.93,South,186,7.0,12.0,92,0.00,,,0.00,107,Wunderground v.1.15,2013-08-05 12:35:00,
2013-08-05 07:45:00,70.3,67.5,29.93,SSW,213,8.0,13.0,91,0.00,,,0.00,118,Wunderground v.1.15,2013-08-05 12:45:00,
2013-08-05 07:55:00,71.0,67.9,29.93,SE,145,8.0,13.0,90,0.00,,,0.00,171,Wunderground v.1.15,2013-08-05 12:55:00,
2013-08-05 08:05:00,71.0,67.9,29.93,SSW,209,8.0,16.0,90,0.00,,,0.00,102,Wunderground v.1.15,2013-08-05 13:05:00,
2013-08-05 08:15:00,71.1,68.0,29.93,SSW,202,7.0,11.0,90,0.00,,,0.00,79,Wunderground v.1.15,2013-08-05 13:15:00,
2013-08-05 08:26:00,71.1,68.0,29.94,SW,236,8.0,14.0,90,0.00,,,0.00,70,Wunderground v.1.15,2013-08-05 13:26:00,
2013-08-05 08:35:00,71.5,68.4,29.93,WSW,241,6.0,14.0,90,0.00,,,0.00,114,Wunderground v.1.15,2013-08-05 13:35:00,
2013-08-05 08:45:00,71.8,68.7,29.93,WSW,240,7.0,14.0,90,0.00,,,0.00,100,Wunderground v.1.15,2013-08-05 13:45:00,
2013-08-05 08:55:00,72.0,68.6,29.93,South,179,8.0,15.0,89,0.00,,,0.00,199,Wunderground v.1.15,2013-08-05 13:55:00,
2013-08-05 09:05:00,72.8,69.0,29.93,SSW,196,8.0,15.0,88,0.00,,,0.00,239,Wunderground v.1.15,2013-08-05 14:05:00,
2013-08-05 09:15:00,73.5,69.4,29.93,SW,234,8.0,10.0,87,0.00,,,0.00,352,Wunderground v.1.15,2013-08-05 14:15:00,
2013-08-05 09:25:00,74.0,69.5,29.94,West,263,7.0,12.0,86,0.00,,,0.00,155,Wunderground v.1.15,2013-08-05 14:25:00,
2013-08-05 09:45:00,74.3,70.5,29.94,West,273,6.0,7.0,88,0.00,,,0.00,95,Wunderground v.1.15,2013-08-05 14:45:00,
2013-08-05 09:55:00,73.6,69.8,29.95,West,264,5.0,7.0,88,0.00,,,0.00,79,Wunderground v.1.15,2013-08-05 14:55:00,
2013-08-05 10:05:00,73.3,69.5,29.96,West,266,7.0,14.0,88,0.00,,,0.00,40,Wunderground v.1.15,2013-08-05 15:05:00,
2013-08-05 10:15:00,73.0,69.6,29.95,West,271,6.0,14.0,89,0.00,,,0.00,49,Wunderground v.1.15,2013-08-05 15:15:00,
2013-08-05 10:25:00,72.9,69.5,29.97,WSW,250,6.0,7.0,89,0.00,,,0.00,26,Wunderground v.1.15,2013-08-05 15:25:00,
2013-08-05 10:35:00,72.7,69.6,29.98,WNW,288,5.0,11.0,90,0.00,,,0.00,21,Wunderground v.1.15,2013-08-05 15:35:00,
2013-08-05 10:45:00,72.4,69.6,29.97,WSW,246,7.0,10.0,91,0.00,,,0.00,33,Wunderground v.1.15,2013-08-05 15:45:00,
2013-08-05 10:55:00,72.1,69.6,29.97,WSW,248,8.0,15.0,92,0.00,,,0.01,25,Wunderground v.1.15,2013-08-05 15:55:00,
2013-08-05 11:05:00,71.7,69.6,29.96,WSW,240,6.0,15.0,93,0.26,,,0.03,32,Wunderground v.1.15,2013-08-05 16:05:00,
2013-08-05 11:15:00,71.6,69.8,29.95,SSW,194,4.0,9.0,94,0.30,,,0.07,44,Wunderground v.1.15,2013-08-05 16:15:00,
2013-08-05 11:25:00,71.5,70.0,29.87,South,175,8.0,11.0,95,0.10,,,0.08,139,Wunderground v.1.15,2013-08-05 16:25:00,
2013-08-05 11:35:00,71.7,70.2,29.85,SSE,159,13.0,22.0,95,0.04,,,0.08,246,Wunderground v.1.15,2013-08-05 16:35:00,
2013-08-05 11:45:00,72.2,70.7,29.85,South,190,13.0,24.0,95,0.00,,,0.08,359,Wunderground v.1.15,2013-08-05 16:45:00,
2013-08-05 11:55:00,73.3,71.2,29.86,SSW,201,8.0,14.0,93,0.00,,,0.08,216,Wunderground v.1.15,2013-08-05 16:55:00,
2013-08-05 12:10:00,74.0,71.2,29.87,SSW,204,6.0,13.0,91,0.00,,,0.08,149,Wunderground v.1.15,2013-08-05 17:10:00,
2013-08-05 12:15:00,74.2,71.4,29.87,SSW,194,6.0,13.0,91,0.00,,,0.08,148,Wunderground v.1.15,2013-08-05 17:15:00,
2013-08-05 12:25:00,74.2,71.1,29.87,SSW,207,9.0,12.0,90,0.00,,,0.08,169,Wunderground v.1.15,2013-08-05 17:25:00,
2013-08-05 12:35:00,73.4,70.6,29.88,WSW,244,8.0,17.0,91,0.00,,,0.08,134,Wunderground v.1.15,2013-08-05 17:35:00,
2013-08-05 12:45:00,73.0,69.9,29.91,WNW,297,6.0,12.0,90,0.00,,,0.08,113,Wunderground v.1.15,2013-08-05 17:45:00,
2013-08-05 12:55:00,72.9,69.5,29.88,WNW,296,4.0,9.0,89,0.00,,,0.08,162,Wunderground v.1.15,2013-08-05 17:55:00,
2013-08-05 13:05:00,73.5,70.1,29.87,NE,48,4.0,10.0,89,0.00,,,0.08,206,Wunderground v.1.15,2013-08-05 18:05:00,
2013-08-05 13:15:00,74.2,70.1,29.86,NNE,17,2.0,10.0,87,0.00,,,0.08,397,Wunderground v.1.15,2013-08-05 18:15:00,
2013-08-05 13:25:00,77.0,71.4,29.87,North,355,4.0,7.0,83,0.00,,,0.08,680,Wunderground v.1.15,2013-08-05 18:25:00,
2013-08-05 13:35:00,77.5,69.7,29.86,NNW,331,6.0,15.0,77,0.00,,,0.08,1009,Wunderground v.1.15,2013-08-05 18:35:00,
2013-08-05 13:45:00,78.4,69.8,29.86,NW,320,6.0,15.0,75,0.00,,,0.08,893,Wunderground v.1.15,2013-08-05 18:45:00,
2013-08-05 13:55:00,79.1,70.1,29.86,NW,319,6.0,12.0,74,0.00,,,0.08,633,Wunderground v.1.15,2013-08-05 18:55:00,
2013-08-05 14:05:00,77.9,69.3,29.86,NW,308,7.0,16.0,75,0.00,,,0.08,422,Wunderground v.1.15,2013-08-05 19:05:00,
2013-08-05 14:15:00,78.3,70.1,29.86,NW,323,6.0,16.0,76,0.00,,,0.08,436,Wunderground v.1.15,2013-08-05 19:15:00,
2013-08-05 14:25:00,79.6,71.0,29.86,WNW,288,6.0,11.0,75,0.00,,,0.08,949,Wunderground v.1.15,2013-08-05 19:25:00,
2013-08-05 14:35:00,80.8,70.9,29.86,NW,324,6.0,14.0,72,0.00,,,0.08,891,Wunderground v.1.15,2013-08-05 19:35:00,
2013-08-05 14:45:00,81.1,70.8,29.86,WNW,289,6.0,13.0,71,0.00,,,0.08,835,Wunderground v.1.15,2013-08-05 19:45:00,
2013-08-05 14:55:00,81.2,71.7,29.85,NW,315,7.0,15.0,73,0.00,,,0.08,853,Wunderground v.1.15,2013-08-05 19:55:00,
2013-08-05 15:05:00,82.3,71.5,29.86,NW,326,6.0,15.0,70,0.00,,,0.08,802,Wunderground v.1.15,2013-08-05 20:05:00,
2013-08-05 15:15:00,82.8,71.2,29.86,WNW,301,7.0,15.0,68,0.00,,,0.08,816,Wunderground v.1.15,2013-08-05 20:15:00,
2013-08-05 15:25:00,82.6,71.4,29.86,WNW,293,6.0,13.0,69,0.00,,,0.08,858,Wunderground v.1.15,2013-08-05 20:25:00,
2013-08-05 15:35:00,83.0,70.9,29.86,NW,313,6.0,13.0,67,0.00,,,0.08,759,Wunderground v.1.15,2013-08-05 20:35:00,
2013-08-05 15:45:00,82.9,70.8,29.87,West,271,7.0,13.0,67,0.00,,,0.08,733,Wunderground v.1.15,2013-08-05 20:45:00,
2013-08-05 15:55:00,83.8,71.2,29.86,West,271,7.0,16.0,66,0.00,,,0.08,715,Wunderground v.1.15,2013-08-05 20:55:00,
2013-08-05 16:00:00,83.8,71.7,29.86,West,262,6.0,6.0,67,0.00,,,0.08,715,Wunderground v.1.15,2013-08-05 21:00:00,
2013-08-05 16:05:00,84.0,71.4,29.86,WNW,288,6.0,14.0,66,0.00,,,0.08,694,Wunderground v.1.15,2013-08-05 21:05:00,
2013-08-05 16:10:00,83.8,71.2,29.86,WSW,251,8.0,8.0,66,0.00,,,0.08,696,Wunderground v.1.15,2013-08-05 21:10:00,
2013-08-05 16:20:00,83.8,71.2,29.86,WNW,285,7.0,7.0,66,0.00,,,0.08,719,Wunderground v.1.15,2013-08-05 21:20:00,
2013-08-05 16:25:00,84.0,70.0,29.86,NNW,327,8.0,8.0,63,0.00,,,0.08,659,Wunderground v.1.15,2013-08-05 21:25:00,
2013-08-05 16:35:00,83.9,70.4,29.86,NW,306,7.0,15.0,64,0.00,,,0.08,621,Wunderground v.1.15,2013-08-05 21:35:00,
2013-08-05 16:40:00,84.1,70.1,29.86,NW,317,8.0,8.0,63,0.00,,,0.08,619,Wunderground v.1.15,2013-08-05 21:40:00,
2013-08-05 16:45:00,84.2,71.2,29.86,WNW,289,7.0,13.0,65,0.00,,,0.08,598,Wunderground v.1.15,2013-08-05 21:45:00,
2013-08-05 16:55:00,84.1,71.1,29.86,NNW,334,6.0,10.0,65,0.00,,,0.08,626,Wunderground v.1.15,2013-08-05 21:55:00,
2013-08-05 17:05:00,83.7,70.7,29.86,NW,319,5.0,11.0,65,0.00,,,0.08,573,Wunderground v.1.15,2013-08-05 22:05:00,
2013-08-05 17:15:00,84.5,70.5,29.86,West,275,6.0,11.0,63,0.00,,,0.08,554,Wunderground v.1.15,2013-08-05 22:15:00,
2013-08-05 17:30:00,83.8,68.4,29.86,NNW,332,6.0,13.0,60,0.00,,,0.08,482,Wunderground v.1.15,2013-08-05 22:30:00,
2013-08-05 17:36:00,83.1,68.7,29.86,NW,326,6.0,13.0,62,0.00,,,0.08,480,Wunderground v.1.15,2013-08-05 22:36:00,
2013-08-05 17:45:00,83.3,68.9,29.86,NW,321,6.0,13.0,62,0.00,,,0.08,452,Wunderground v.1.15,2013-08-05 22:45:00,
2013-08-05 17:55:00,83.9,70.0,29.86,WNW,300,5.0,9.0,63,0.00,,,0.08,483,Wunderground v.1.15,2013-08-05 22:55:00,
2013-08-05 18:05:00,83.1,68.7,29.85,NW,323,6.0,13.0,62,0.00,,,0.08,118,Wunderground v.1.15,2013-08-05 23:05:00,
2013-08-05 18:15:00,82.8,69.4,29.85,NW,325,6.0,9.0,64,0.00,,,0.08,369,Wunderground v.1.15,2013-08-05 23:15:00,
2013-08-05 18:25:00,82.5,70.4,29.85,NW,311,5.0,10.0,67,0.00,,,0.08,338,Wunderground v.1.15,2013-08-05 23:25:00,
2013-08-05 18:35:00,82.4,70.3,29.85,North,5,5.0,10.0,67,0.00,,,0.08,285,Wunderground v.1.15,2013-08-05 23:35:00,
2013-08-05 18:45:00,82.0,70.4,29.85,NW,315,5.0,10.0,68,0.00,,,0.08,246,Wunderground v.1.15,2013-08-05 23:45:00,
2013-08-05 18:55:00,81.9,70.7,29.85,NNW,327,4.0,8.0,69,0.00,,,0.08,74,Wunderground v.1.15,2013-08-05 23:55:00,
2013-08-05 19:05:00,81.4,71.1,29.85,NNW,336,4.0,8.0,71,0.00,,,0.08,39,Wunderground v.1.15,2013-08-06 00:05:00,
2013-08-05 19:15:00,81.0,70.7,29.85,NW,325,4.0,6.0,71,0.00,,,0.08,35,Wunderground v.1.15,2013-08-06 00:15:00,
2013-08-05 19:25:00,80.7,71.2,29.85,NW,319,3.0,6.0,73,0.00,,,0.08,33,Wunderground v.1.15,2013-08-06 00:25:00,
2013-08-05 19:35:00,80.4,70.9,29.85,NW,319,2.0,5.0,73,0.00,,,0.08,30,Wunderground v.1.15,2013-08-06 00:35:00,
2013-08-05 19:45:00,80.1,71.1,29.85,NW,308,1.0,5.0,74,0.00,,,0.08,26,Wunderground v.1.15,2013-08-06 00:45:00,
2013-08-05 19:55:00,79.7,71.1,29.86,WNW,299,1.0,3.0,75,0.00,,,0.08,23,Wunderground v.1.15,2013-08-06 00:55:00,
2013-08-05 20:15:00,78.5,70.7,29.86,WSW,257,1.0,4.0,77,0.00,,,0.08,12,Wunderground v.1.15,2013-08-06 01:15:00,
2013-08-05 20:25:00,78.0,70.6,29.86,WSW,250,1.0,4.0,78,0.00,,,0.08,7,Wunderground v.1.15,2013-08-06 01:25:00,
2013-08-05 20:35:00,77.6,70.6,29.86,West,264,2.0,4.0,79,0.00,,,0.08,0,Wunderground v.1.15,2013-08-06 01:35:00,
2013-08-05 20:45:00,77.3,70.6,29.86,WSW,257,2.0,4.0,80,0.00,,,0.08,0,Wunderground v.1.15,2013-08-06 01:45:00,
2013-08-05 20:55:00,76.9,70.6,29.86,WSW,242,1.0,4.0,81,0.00,,,0.08,0,Wunderground v.1.15,2013-08-06 01:55:00,
2013-08-05 21:05:00,76.6,70.3,29.85,WSW,241,1.0,3.0,81,0.00,,,0.08,0,Wunderground v.1.15,2013-08-06 02:05:00,
2013-08-05 21:15:00,76.8,70.5,29.85,SW,217,1.0,3.0,81,0.00,,,0.08,0,Wunderground v.1.15,2013-08-06 02:15:00,
2013-08-05 21:25:00,76.3,70.4,29.85,WSW,256,2.0,4.0,82,0.00,,,0.08,0,Wunderground v.1.15,2013-08-06 02:25:00,
2013-08-05 21:35:00,75.7,70.2,29.85,West,273,3.0,5.0,83,0.00,,,0.08,0,Wunderground v.1.15,2013-08-06 02:35:00,
2013-08-05 21:45:00,75.2,70.0,29.85,WNW,292,2.0,3.0,84,0.00,,,0.08,0,Wunderground v.1.15,2013-08-06 02:45:00,
2013-08-05 21:50:00,75.0,69.8,29.85,WNW,297,1.0,5.0,84,0.00,,,0.08,0,Wunderground v.1.15,2013-08-06 02:50:00,
2013-08-05 21:55:00,74.8,70.0,29.85,WNW,302,1.0,5.0,85,0.00,,,0.08,0,Wunderground v.1.15,2013-08-06 02:55:00,
2013-08-05 22:05:00,74.5,69.7,29.85,WNW,300,1.0,3.0,85,0.00,,,0.08,0,Wunderground v.1.15,2013-08-06 03:05:00,
2013-08-05 22:15:00,74.0,69.5,29.85,NW,306,0.0,3.0,86,0.00,,,0.08,0,Wunderground v.1.15,2013-08-06 03:15:00,
2013-08-05 22:20:00,73.6,69.2,29.85,NW,306,0.0,1.0,86,0.00,,,0.08,0,Wunderground v.1.15,2013-08-06 03:20:00,
2013-08-05 22:25:00,73.3,69.2,29.85,NW,306,0.0,2.0,87,0.00,,,0.08,0,Wunderground v.1.15,2013-08-06 03:25:00,
2013-08-05 22:35:00,73.3,69.5,29.84,NNW,336,1.0,3.0,88,0.00,,,0.08,0,Wunderground v.1.15,2013-08-06 03:35:00,
2013-08-05 22:45:00,73.2,69.4,29.85,NW,312,0.0,2.0,88,0.00,,,0.08,0,Wunderground v.1.15,2013-08-06 03:45:00,
2013-08-05 22:55:00,72.9,69.1,29.85,NW,311,0.0,2.0,88,0.00,,,0.08,0,Wunderground v.1.15,2013-08-06 03:55:00,
2013-08-05 23:05:00,72.3,68.9,29.84,NW,311,0.0,2.0,89,0.00,,,0.08,0,Wunderground v.1.15,2013-08-06 04:05:00,
2013-08-05 23:10:00,72.0,68.9,29.84,NW,311,0.0,1.0,90,0.00,,,0.08,0,Wunderground v.1.15,2013-08-06 04:10:00,
2013-08-05 23:15:00,71.7,68.6,29.84,NW,311,0.0,1.0,90,0.00,,,0.08,0,Wunderground v.1.15,2013-08-06 04:15:00,
2013-08-05 23:25:00,71.4,68.6,29.85,NW,311,0.0,0.0,91,0.00,,,0.08,0,Wunderground v.1.15,2013-08-06 04:25:00,
2013-08-05 23:30:00,71.3,68.9,29.85,NW,311,0.0,0.0,92,0.00,,,0.08,0,Wunderground v.1.15,2013-08-06 04:30:00,
2013-08-05 23:35:00,71.3,68.9,29.86,NW,311,0.0,0.0,92,0.00,,,0.08,0,Wunderground v.1.15,2013-08-06 04:35:00,
2013-08-05 23:45:00,71.3,68.9,29.85,NW,311,0.0,0.0,92,0.00,,,0.08,0,Wunderground v.1.15,2013-08-06 04:45:00,
2013-08-05 23:55:00,71.5,68.7,29.86,NW,311,0.0,2.0,91,0.00,,,0.08,0,Wunderground v.1.15,2013-08-06 04:55:00,